User: anonymous   Login
Location: Les Moreaux
(47.2278°N, 1.4966°E)
Time: 00:12:03
(UTC+00:00)
Language:

Okean-O - Orbit

View from above orbital plane
View from above orbital plane
View from above satellite
View from above satellite

Ground track
Ground track

The orbit data is extracted from the following two-line orbital elements,

1 25860U 99039A   25189.39397710  .00000501  00000-0  73495-4 0  9993
2 25860  97.9824 246.2607 0001870  80.3585 279.7838 14.79832697398251
Epoch (UTC): 08 July 2025 09:27:19
Eccentricity: 0.0001870
inclination: 97.9824°
perigee height: 628 km
apogee height: 631 km
right ascension of ascending node: 246.2607°
argument of perigee: 80.3585°
revolutions per day: 14.79832697
mean anomaly at epoch: 279.7838°
orbit number at epoch: 39825

The dashed part of the orbit path shows where the satellite is in the earth's shadow,  

DLR